GAOFEN-5 01

Last updated on Thu Oct 30 2025 00:02:32 GMT+0000 (Coordinated Universal Time)

1 43461U 18043A 25302.45558308 .00000797 00000+0 17503-3 0 9995 2 43461 98.4257 264.6679 0003060 79.9659 280.1886 14.60334144398013
UTC large
Height (km)
Speed (km/s)
/
Latitude / Longitude
Inclination (degrees)
Orbital Period (minutes)
Azimuth
Elevation
Range (km)
Doppler Factor

Next 0 passes for location: London (51.5072 / 0.1276)

Sorry there are no passes over London.